Year,Month,Day,Hour,Minute,Value (Times are PST for temperature in C)
2011,04,27,00,00,8.10
2011,04,27,00,01,8.10
2011,04,27,00,02,8.10
2011,04,27,00,03,8.10
2011,04,27,00,04,8.10
2011,04,27,00,05,8.10
2011,04,27,00,06,8.10
2011,04,27,00,07,8.20
2011,04,27,00,08,8.20
2011,04,27,00,09,8.20
2011,04,27,00,10,8.20
2011,04,27,00,11,8.20
2011,04,27,00,12,8.20
2011,04,27,00,13,8.30
2011,04,27,00,14,8.30
2011,04,27,00,15,8.30
2011,04,27,00,16,8.30
2011,04,27,00,17,8.30
2011,04,27,00,18,8.30
2011,04,27,00,19,8.30
2011,04,27,00,20,8.30
2011,04,27,00,21,8.40
2011,04,27,00,22,8.40
2011,04,27,00,23,8.40
2011,04,27,00,24,8.40
2011,04,27,00,25,8.40
2011,04,27,00,26,8.40
2011,04,27,00,27,8.40
2011,04,27,00,28,8.40
2011,04,27,00,29,8.40
2011,04,27,00,30,8.40
2011,04,27,00,31,8.40
2011,04,27,00,32,8.40
2011,04,27,00,33,8.40
2011,04,27,00,34,8.40
2011,04,27,00,35,8.40
2011,04,27,00,36,8.40
2011,04,27,00,37,8.40
2011,04,27,00,38,8.40
2011,04,27,00,39,8.40
2011,04,27,00,40,8.40
2011,04,27,00,41,8.40
2011,04,27,00,42,8.40
2011,04,27,00,43,8.30
2011,04,27,00,44,8.40
2011,04,27,00,45,8.40
2011,04,27,00,46,8.30
2011,04,27,00,47,8.30
2011,04,27,00,48,8.30
2011,04,27,00,49,8.30
2011,04,27,00,50,8.30
2011,04,27,00,51,8.30
2011,04,27,00,52,8.30
2011,04,27,00,53,8.40
2011,04,27,00,54,8.40
2011,04,27,00,55,8.40
2011,04,27,00,56,8.40
2011,04,27,00,57,8.40
2011,04,27,00,58,8.40
2011,04,27,00,59,8.40
2011,04,27,01,00,8.40
2011,04,27,01,01,8.40
2011,04,27,01,02,8.40
2011,04,27,01,03,8.30
2011,04,27,01,04,8.30
2011,04,27,01,05,8.30
2011,04,27,01,06,8.30
2011,04,27,01,07,8.30
2011,04,27,01,08,8.30
2011,04,27,01,09,8.30
2011,04,27,01,10,8.30
2011,04,27,01,11,8.30
2011,04,27,01,12,8.30
2011,04,27,01,13,8.30
2011,04,27,01,14,8.30
2011,04,27,01,15,8.30
2011,04,27,01,16,8.30
2011,04,27,01,17,8.30
2011,04,27,01,18,8.30
2011,04,27,01,19,8.30
2011,04,27,01,20,8.30
2011,04,27,01,21,8.30
2011,04,27,01,22,8.30
2011,04,27,01,23,8.30
2011,04,27,01,24,8.30
2011,04,27,01,25,8.30
2011,04,27,01,26,8.30
2011,04,27,01,27,8.20
2011,04,27,01,28,8.20
2011,04,27,01,29,8.20
2011,04,27,01,30,8.20
2011,04,27,01,31,8.20
2011,04,27,01,32,8.20
2011,04,27,01,33,8.20
2011,04,27,01,34,8.10
2011,04,27,01,35,8.10
2011,04,27,01,36,8.10
2011,04,27,01,37,8.10
2011,04,27,01,38,8.10
2011,04,27,01,39,8.10
2011,04,27,01,40,8.10
2011,04,27,01,41,8.10
2011,04,27,01,42,8.10
2011,04,27,01,43,8.10
2011,04,27,01,44,8.10
2011,04,27,01,45,8.10
2011,04,27,01,46,8.10
2011,04,27,01,47,8.10
2011,04,27,01,48,8.10
2011,04,27,01,49,8.10
2011,04,27,01,50,8.10
2011,04,27,01,51,8.10
2011,04,27,01,52,8.10
2011,04,27,01,53,8.10
2011,04,27,01,54,8.10
2011,04,27,01,55,8.10
2011,04,27,01,56,8.10
2011,04,27,01,57,8.10
2011,04,27,01,58,8.10
2011,04,27,01,59,8.10
2011,04,27,02,00,8.20
2011,04,27,02,01,8.20
2011,04,27,02,02,8.20
2011,04,27,02,03,8.20
2011,04,27,02,04,8.20
2011,04,27,02,05,8.20
2011,04,27,02,06,8.20
2011,04,27,02,07,8.20
2011,04,27,02,08,8.20
2011,04,27,02,09,8.20
2011,04,27,02,10,8.20
2011,04,27,02,11,8.20
2011,04,27,02,12,8.20
2011,04,27,02,13,8.20
2011,04,27,02,14,8.20
2011,04,27,02,15,8.20
2011,04,27,02,16,8.20
2011,04,27,02,17,8.30
2011,04,27,02,18,8.30
2011,04,27,02,19,8.30
2011,04,27,02,20,8.30
2011,04,27,02,21,8.30
2011,04,27,02,22,8.30
2011,04,27,02,23,8.30
2011,04,27,02,24,8.30
2011,04,27,02,25,8.30
2011,04,27,02,26,8.30
2011,04,27,02,27,8.30
2011,04,27,02,28,8.30
2011,04,27,02,29,8.30
2011,04,27,02,30,8.30
2011,04,27,02,31,8.30
2011,04,27,02,32,8.30
2011,04,27,02,33,8.30
2011,04,27,02,34,8.30
2011,04,27,02,35,8.30
2011,04,27,02,36,8.30
2011,04,27,02,37,8.30
2011,04,27,02,38,8.20
2011,04,27,02,39,8.20
2011,04,27,02,40,8.30
2011,04,27,02,41,8.30
2011,04,27,02,42,8.30
2011,04,27,02,43,8.30
2011,04,27,02,44,8.20
2011,04,27,02,45,8.20
2011,04,27,02,46,8.20
2011,04,27,02,47,8.20
2011,04,27,02,48,8.20
2011,04,27,02,49,8.20
2011,04,27,02,50,8.10
2011,04,27,02,51,8.10
2011,04,27,02,52,8.10
2011,04,27,02,53,8.10
2011,04,27,02,54,8.10
2011,04,27,02,55,8.10
2011,04,27,02,56,8.10
2011,04,27,02,57,8.10
2011,04,27,02,58,8.00
2011,04,27,02,59,8.00
2011,04,27,03,00,8.00
2011,04,27,03,01,8.00
2011,04,27,03,02,8.00
2011,04,27,03,03,8.00
2011,04,27,03,04,8.00
2011,04,27,03,05,7.90
2011,04,27,03,06,7.90
2011,04,27,03,07,7.90
2011,04,27,03,08,7.90
2011,04,27,03,09,7.90
2011,04,27,03,10,7.90
2011,04,27,03,11,7.90
2011,04,27,03,12,7.90
2011,04,27,03,13,7.90
2011,04,27,03,14,7.90
2011,04,27,03,15,7.90
2011,04,27,03,16,7.90
2011,04,27,03,17,7.90
2011,04,27,03,18,7.90
2011,04,27,03,19,7.80
2011,04,27,03,20,7.80
2011,04,27,03,21,7.80
2011,04,27,03,22,7.80
2011,04,27,03,23,7.80
2011,04,27,03,24,7.80
2011,04,27,03,25,7.80
2011,04,27,03,26,7.80
2011,04,27,03,27,7.80
2011,04,27,03,28,7.80
2011,04,27,03,29,7.80
2011,04,27,03,30,7.80
2011,04,27,03,31,7.80
2011,04,27,03,32,7.80
2011,04,27,03,33,7.80
2011,04,27,03,34,7.80
2011,04,27,03,35,7.80
2011,04,27,03,36,7.80
2011,04,27,03,37,7.80
2011,04,27,03,38,7.80
2011,04,27,03,39,7.80
2011,04,27,03,40,7.80
2011,04,27,03,41,7.80
2011,04,27,03,42,7.80
2011,04,27,03,43,7.80
2011,04,27,03,44,7.80
2011,04,27,03,45,7.80
2011,04,27,03,46,7.80
2011,04,27,03,47,7.80
2011,04,27,03,48,7.80
2011,04,27,03,49,7.80
2011,04,27,03,50,7.80
2011,04,27,03,51,7.80
2011,04,27,03,52,7.80
2011,04,27,03,53,7.80
2011,04,27,03,54,7.80
2011,04,27,03,55,7.80
2011,04,27,03,56,7.70
2011,04,27,03,57,7.70
2011,04,27,03,58,7.70
2011,04,27,03,59,7.70
2011,04,27,04,00,7.70
2011,04,27,04,01,7.70
2011,04,27,04,02,7.70
2011,04,27,04,03,7.70
2011,04,27,04,04,7.70
2011,04,27,04,05,7.70
2011,04,27,04,06,7.70
2011,04,27,04,07,7.60
2011,04,27,04,08,7.60
2011,04,27,04,09,7.60
2011,04,27,04,10,7.60
2011,04,27,04,11,7.60
2011,04,27,04,12,7.60
2011,04,27,04,13,7.60
2011,04,27,04,14,7.60
2011,04,27,04,15,7.60
2011,04,27,04,16,7.50
2011,04,27,04,17,7.50
2011,04,27,04,18,7.50
2011,04,27,04,19,7.50
2011,04,27,04,20,7.50
2011,04,27,04,21,7.50
2011,04,27,04,22,7.50
2011,04,27,04,23,7.50
2011,04,27,04,24,7.60
2011,04,27,04,25,7.60
2011,04,27,04,26,7.60
2011,04,27,04,27,7.60
2011,04,27,04,28,7.50
2011,04,27,04,29,7.50
2011,04,27,04,30,7.50
2011,04,27,04,31,7.50
2011,04,27,04,32,7.50
2011,04,27,04,33,7.50
2011,04,27,04,34,7.40
2011,04,27,04,35,7.40
2011,04,27,04,36,7.40
2011,04,27,04,37,7.40
2011,04,27,04,38,7.40
2011,04,27,04,39,7.40
2011,04,27,04,40,7.30
2011,04,27,04,41,7.30
2011,04,27,04,42,7.30
2011,04,27,04,43,7.30
2011,04,27,04,44,7.30
2011,04,27,04,45,7.30
2011,04,27,04,46,7.20
2011,04,27,04,47,7.20
2011,04,27,04,48,7.20
2011,04,27,04,49,7.20
2011,04,27,04,50,7.20
2011,04,27,04,51,7.20
2011,04,27,04,52,7.10
2011,04,27,04,53,7.10
2011,04,27,04,54,7.10
2011,04,27,04,55,7.10
2011,04,27,04,56,7.10
2011,04,27,04,57,7.10
2011,04,27,04,58,7.10
2011,04,27,04,59,7.10
2011,04,27,05,00,7.10
2011,04,27,05,01,7.10
2011,04,27,05,02,7.10
2011,04,27,05,03,7.10
2011,04,27,05,04,7.10
2011,04,27,05,05,7.00
2011,04,27,05,06,7.00
2011,04,27,05,07,7.00
2011,04,27,05,08,7.00
2011,04,27,05,09,6.90
2011,04,27,05,10,6.90
2011,04,27,05,11,6.90
2011,04,27,05,12,6.80
2011,04,27,05,13,6.80
2011,04,27,05,14,6.70
2011,04,27,05,15,6.70
2011,04,27,05,16,6.70
2011,04,27,05,17,6.70
2011,04,27,05,18,6.70
2011,04,27,05,19,6.70
2011,04,27,05,20,6.70
2011,04,27,05,21,6.70
2011,04,27,05,22,6.70
2011,04,27,05,23,6.70
2011,04,27,05,24,6.80
2011,04,27,05,25,6.80
2011,04,27,05,26,6.90
2011,04,27,05,27,6.90
2011,04,27,05,28,7.00
2011,04,27,05,29,7.00
2011,04,27,05,30,7.10
2011,04,27,05,31,7.10
2011,04,27,05,32,7.10
2011,04,27,05,33,7.20
2011,04,27,05,34,7.20
2011,04,27,05,35,7.20
2011,04,27,05,36,7.20
2011,04,27,05,37,7.20
2011,04,27,05,38,7.20
2011,04,27,05,39,7.20
2011,04,27,05,40,7.10
2011,04,27,05,41,7.10
2011,04,27,05,42,7.10
2011,04,27,05,43,7.10
2011,04,27,05,44,7.10
2011,04,27,05,45,7.10
2011,04,27,05,46,7.10
2011,04,27,05,47,7.10
2011,04,27,05,48,7.00
2011,04,27,05,49,7.00
2011,04,27,05,50,6.90
2011,04,27,05,51,6.90
2011,04,27,05,52,6.90
2011,04,27,05,53,6.90
2011,04,27,05,54,6.90
2011,04,27,05,55,6.90
2011,04,27,05,56,6.90
2011,04,27,05,57,6.90
2011,04,27,05,58,6.90
2011,04,27,05,59,6.90
2011,04,27,06,00,6.90
2011,04,27,06,01,6.90
2011,04,27,06,02,6.80
2011,04,27,06,03,6.80
2011,04,27,06,04,6.80
2011,04,27,06,05,6.80
2011,04,27,06,06,6.70
2011,04,27,06,07,6.70
2011,04,27,06,08,6.70
2011,04,27,06,09,6.70
2011,04,27,06,10,6.70
2011,04,27,06,11,6.70
2011,04,27,06,12,6.70
2011,04,27,06,13,6.70
2011,04,27,06,14,6.70
2011,04,27,06,15,6.70
2011,04,27,06,16,6.70
2011,04,27,06,17,6.70
2011,04,27,06,18,6.70
2011,04,27,06,19,6.70
2011,04,27,06,20,6.70
2011,04,27,06,21,6.70
2011,04,27,06,22,6.60
2011,04,27,06,23,6.60
2011,04,27,06,24,6.60
2011,04,27,06,25,6.60
2011,04,27,06,26,6.60
2011,04,27,06,27,6.60
2011,04,27,06,28,6.70
2011,04,27,06,29,6.70
2011,04,27,06,30,6.70
2011,04,27,06,31,6.70
2011,04,27,06,32,6.70
2011,04,27,06,33,6.80
2011,04,27,06,34,6.80
2011,04,27,06,35,6.80
2011,04,27,06,36,6.80
2011,04,27,06,37,6.80
2011,04,27,06,38,6.80
2011,04,27,06,39,6.80
2011,04,27,06,40,6.80
2011,04,27,06,41,6.80
2011,04,27,06,42,6.90
2011,04,27,06,43,6.90
2011,04,27,06,44,6.90
2011,04,27,06,45,6.90
2011,04,27,06,46,6.90
2011,04,27,06,47,7.00
2011,04,27,06,48,7.00
2011,04,27,06,49,7.00
2011,04,27,06,50,7.00
2011,04,27,06,51,7.00
2011,04,27,06,52,7.00
2011,04,27,06,53,7.00
2011,04,27,06,54,7.00
2011,04,27,06,55,7.00
2011,04,27,06,56,7.10
2011,04,27,06,57,7.10
2011,04,27,06,58,7.10
2011,04,27,06,59,7.10
2011,04,27,07,00,7.10
2011,04,27,07,01,7.10
2011,04,27,07,02,7.20
2011,04,27,07,03,7.20
2011,04,27,07,04,7.20
2011,04,27,07,05,7.20
2011,04,27,07,06,7.20
2011,04,27,07,07,7.20
2011,04,27,07,08,7.20
2011,04,27,07,09,7.30
2011,04,27,07,10,7.30
2011,04,27,07,11,7.30
2011,04,27,07,12,7.30
2011,04,27,07,13,7.30
2011,04,27,07,14,7.30
2011,04,27,07,15,7.30
2011,04,27,07,16,7.30
2011,04,27,07,17,7.30
2011,04,27,07,18,7.30
2011,04,27,07,19,7.30
2011,04,27,07,20,7.30
2011,04,27,07,21,7.30
2011,04,27,07,22,7.30
2011,04,27,07,23,7.30
2011,04,27,07,24,7.30
2011,04,27,07,25,7.30
2011,04,27,07,26,7.30
2011,04,27,07,27,7.30
2011,04,27,07,28,7.30
2011,04,27,07,29,7.30
2011,04,27,07,30,7.30
2011,04,27,07,31,7.30
2011,04,27,07,32,7.30
2011,04,27,07,33,7.30
2011,04,27,07,34,7.30
2011,04,27,07,35,7.30
2011,04,27,07,36,7.30
2011,04,27,07,37,7.30
2011,04,27,07,38,7.40
2011,04,27,07,39,7.40
2011,04,27,07,40,7.40
2011,04,27,07,41,7.40
2011,04,27,07,42,7.40
2011,04,27,07,43,7.40
2011,04,27,07,44,7.40
2011,04,27,07,45,7.40
2011,04,27,07,46,7.50
2011,04,27,07,47,7.50
2011,04,27,07,48,7.50
2011,04,27,07,49,7.60
2011,04,27,07,50,7.60
2011,04,27,07,51,7.60
2011,04,27,07,52,7.70
2011,04,27,07,53,7.70
2011,04,27,07,54,7.70
2011,04,27,07,55,7.80
2011,04,27,07,56,7.80
2011,04,27,07,57,7.90
2011,04,27,07,58,7.90
2011,04,27,07,59,8.00
2011,04,27,08,00,8.10
2011,04,27,08,01,8.10
2011,04,27,08,02,8.20
2011,04,27,08,03,8.20
2011,04,27,08,04,8.20
2011,04,27,08,05,8.30
2011,04,27,08,06,8.30
2011,04,27,08,07,8.30
2011,04,27,08,08,8.30
2011,04,27,08,09,8.30
2011,04,27,08,10,8.30
2011,04,27,08,11,8.30
2011,04,27,08,12,8.30
2011,04,27,08,13,8.30
2011,04,27,08,14,8.30
2011,04,27,08,15,8.30
2011,04,27,08,16,8.30
2011,04,27,08,17,8.30
2011,04,27,08,18,8.30
2011,04,27,08,19,8.30
2011,04,27,08,20,8.40
2011,04,27,08,21,8.40
2011,04,27,08,22,8.40
2011,04,27,08,23,8.40
2011,04,27,08,24,8.40
2011,04,27,08,25,8.40
2011,04,27,08,26,8.40
2011,04,27,08,27,8.50
2011,04,27,08,28,8.50
2011,04,27,08,29,8.50
2011,04,27,08,30,8.50
2011,04,27,08,31,8.60
2011,04,27,08,32,8.60
2011,04,27,08,33,8.60
2011,04,27,08,34,8.60
2011,04,27,08,35,8.70
2011,04,27,08,36,8.70
2011,04,27,08,37,8.70
2011,04,27,08,38,8.70
2011,04,27,08,39,8.70
2011,04,27,08,40,8.70
2011,04,27,08,41,8.70
2011,04,27,08,42,8.80
2011,04,27,08,43,8.80
2011,04,27,08,44,8.80
2011,04,27,08,45,8.80
2011,04,27,08,46,8.90
2011,04,27,08,47,8.90
2011,04,27,08,48,8.90
2011,04,27,08,49,8.90
2011,04,27,08,50,9.00
2011,04,27,08,51,9.10
2011,04,27,08,52,9.10
2011,04,27,08,53,9.20
2011,04,27,08,54,9.20
2011,04,27,08,55,9.20
2011,04,27,08,56,9.30
2011,04,27,08,57,9.30
2011,04,27,08,58,9.40
2011,04,27,08,59,9.40
2011,04,27,09,00,9.50
2011,04,27,09,01,9.60
2011,04,27,09,02,9.60
2011,04,27,09,03,9.70
2011,04,27,09,04,9.80
2011,04,27,09,05,9.80
2011,04,27,09,06,9.90
2011,04,27,09,07,9.90
2011,04,27,09,08,9.90
2011,04,27,09,09,9.90
2011,04,27,09,10,9.80
2011,04,27,09,11,9.80
2011,04,27,09,12,9.80
2011,04,27,09,13,9.80
2011,04,27,09,14,9.70
2011,04,27,09,15,9.70
2011,04,27,09,16,9.70
2011,04,27,09,17,9.70
2011,04,27,09,18,9.60
2011,04,27,09,19,9.60
2011,04,27,09,20,9.60
2011,04,27,09,21,9.60
2011,04,27,09,22,9.60
2011,04,27,09,23,9.60
2011,04,27,09,24,9.60
2011,04,27,09,25,9.60
2011,04,27,09,26,9.70
2011,04,27,09,27,9.70
2011,04,27,09,28,9.70
2011,04,27,09,29,9.80
2011,04,27,09,30,9.90
2011,04,27,09,31,9.90
2011,04,27,09,32,9.90
2011,04,27,09,33,9.90
2011,04,27,09,34,9.90
2011,04,27,09,35,9.90
2011,04,27,09,36,9.90
2011,04,27,09,37,9.90
2011,04,27,09,38,9.90
2011,04,27,09,39,9.90
2011,04,27,09,40,9.90
2011,04,27,09,41,10.00
2011,04,27,09,42,10.10
2011,04,27,09,43,10.10
2011,04,27,09,44,10.20
2011,04,27,09,45,10.30
2011,04,27,09,46,10.30
2011,04,27,09,47,10.40
2011,04,27,09,48,10.50
2011,04,27,09,49,10.50
2011,04,27,09,50,10.50
2011,04,27,09,51,10.50
2011,04,27,09,52,10.40
2011,04,27,09,53,10.40
2011,04,27,09,54,10.30
2011,04,27,09,55,10.20
2011,04,27,09,56,10.20
2011,04,27,09,57,10.10
2011,04,27,09,58,10.10
2011,04,27,09,59,10.00
2011,04,27,10,00,10.00
2011,04,27,10,01,10.00
2011,04,27,10,02,10.10
2011,04,27,10,03,10.20
2011,04,27,10,04,10.20
2011,04,27,10,05,10.20
2011,04,27,10,06,10.20
2011,04,27,10,07,10.30
2011,04,27,10,08,10.20
2011,04,27,10,09,10.20
2011,04,27,10,10,10.20
2011,04,27,10,11,10.30
2011,04,27,10,12,10.20
2011,04,27,10,13,10.20
2011,04,27,10,14,10.20
2011,04,27,10,15,10.20
2011,04,27,10,16,10.20
2011,04,27,10,17,10.20
2011,04,27,10,18,10.20
2011,04,27,10,19,10.20
2011,04,27,10,20,10.10
2011,04,27,10,21,10.00
2011,04,27,10,22,9.90
2011,04,27,10,23,9.90
2011,04,27,10,24,9.90
2011,04,27,10,25,10.00
2011,04,27,10,26,10.00
2011,04,27,10,27,10.00
2011,04,27,10,28,10.10
2011,04,27,10,29,10.10
2011,04,27,10,30,10.10
2011,04,27,10,31,10.10
2011,04,27,10,32,10.10
2011,04,27,10,33,10.00
2011,04,27,10,34,10.10
2011,04,27,10,35,10.10
2011,04,27,10,36,10.00
2011,04,27,10,37,10.00
2011,04,27,10,38,9.90
2011,04,27,10,39,9.70
2011,04,27,10,40,9.70
2011,04,27,10,41,9.60
2011,04,27,10,42,9.50
2011,04,27,10,43,9.50
2011,04,27,10,44,9.40
2011,04,27,10,45,9.40
2011,04,27,10,46,9.40
2011,04,27,10,47,9.40
2011,04,27,10,48,9.30
2011,04,27,10,49,9.40
2011,04,27,10,50,9.40
2011,04,27,10,51,9.40
2011,04,27,10,52,9.50
2011,04,27,10,53,9.40
2011,04,27,10,54,9.40
2011,04,27,10,55,9.40
2011,04,27,10,56,9.40
2011,04,27,10,57,9.50
2011,04,27,10,58,9.50
2011,04,27,10,59,9.60
2011,04,27,11,00,9.60
2011,04,27,11,01,9.70
2011,04,27,11,02,9.70
2011,04,27,11,03,9.70
2011,04,27,11,04,9.70
2011,04,27,11,05,9.70
2011,04,27,11,06,9.80
2011,04,27,11,07,9.80
2011,04,27,11,08,9.80
2011,04,27,11,09,9.80
2011,04,27,11,10,9.80
2011,04,27,11,11,9.80
2011,04,27,11,12,9.80
2011,04,27,11,13,9.80
2011,04,27,11,14,9.80
2011,04,27,11,15,9.80
2011,04,27,11,16,9.80
2011,04,27,11,17,9.80
2011,04,27,11,18,9.80
2011,04,27,11,19,9.80
2011,04,27,11,20,9.80
2011,04,27,11,21,9.80
2011,04,27,11,22,9.80
2011,04,27,11,23,9.80
2011,04,27,11,24,9.80
2011,04,27,11,25,9.80
2011,04,27,11,26,9.80
2011,04,27,11,27,9.80
2011,04,27,11,28,9.80
2011,04,27,11,29,9.80
2011,04,27,11,30,9.80
2011,04,27,11,31,9.80
2011,04,27,11,32,9.80
2011,04,27,11,33,9.70
2011,04,27,11,34,9.70
2011,04,27,11,35,9.70
2011,04,27,11,36,9.70
2011,04,27,11,37,9.70
2011,04,27,11,38,9.60
2011,04,27,11,39,9.60
2011,04,27,11,40,9.60
2011,04,27,11,41,9.50
2011,04,27,11,42,9.50
2011,04,27,11,43,9.40
2011,04,27,11,44,9.30
2011,04,27,11,45,9.30
2011,04,27,11,46,9.30
2011,04,27,11,47,9.30
2011,04,27,11,48,9.30
2011,04,27,11,49,9.30
2011,04,27,11,50,9.30
2011,04,27,11,51,9.40
2011,04,27,11,52,9.40
2011,04,27,11,53,9.40
2011,04,27,11,54,9.40
2011,04,27,11,55,9.40
2011,04,27,11,56,9.40
2011,04,27,11,57,9.40
2011,04,27,11,58,9.40
2011,04,27,11,59,9.40
2011,04,27,12,00,9.40
2011,04,27,12,01,9.30
2011,04,27,12,02,9.30
2011,04,27,12,03,9.30
2011,04,27,12,04,9.30
2011,04,27,12,05,9.30
2011,04,27,12,06,9.20
2011,04,27,12,07,9.20
2011,04,27,12,08,9.20
2011,04,27,12,09,9.20
2011,04,27,12,10,9.20
2011,04,27,12,11,9.20
2011,04,27,12,12,9.20
2011,04,27,12,13,9.20
2011,04,27,12,14,9.20
2011,04,27,12,15,9.20
2011,04,27,12,16,9.20
2011,04,27,12,17,9.20
2011,04,27,12,18,9.20
2011,04,27,12,19,9.30
2011,04,27,12,20,9.30
2011,04,27,12,21,9.30
2011,04,27,12,22,9.30
2011,04,27,12,23,9.30
2011,04,27,12,24,9.40
2011,04,27,12,25,9.40
2011,04,27,12,26,9.40
2011,04,27,12,27,9.40
2011,04,27,12,28,9.40
2011,04,27,12,29,9.40
2011,04,27,12,30,9.50
2011,04,27,12,31,9.50
2011,04,27,12,32,9.50
2011,04,27,12,33,9.50
2011,04,27,12,34,9.60
2011,04,27,12,35,9.60
2011,04,27,12,36,9.60
2011,04,27,12,37,9.60
2011,04,27,12,38,9.60
2011,04,27,12,39,9.50
2011,04,27,12,40,9.50
2011,04,27,12,41,9.50
2011,04,27,12,42,9.50
2011,04,27,12,43,9.50
2011,04,27,12,44,9.50
2011,04,27,12,45,9.50
2011,04,27,12,46,9.50
2011,04,27,12,47,9.50
2011,04,27,12,48,9.50
2011,04,27,12,49,9.50
2011,04,27,12,50,9.50
2011,04,27,12,51,9.50
2011,04,27,12,52,9.40
2011,04,27,12,53,9.40
2011,04,27,12,54,9.40
2011,04,27,12,55,9.40
2011,04,27,12,56,9.40
2011,04,27,12,57,9.40
2011,04,27,12,58,9.40
2011,04,27,12,59,9.40
2011,04,27,13,00,9.40
2011,04,27,13,01,9.30
2011,04,27,13,02,9.30
2011,04,27,13,03,9.20
2011,04,27,13,04,9.20
2011,04,27,13,05,9.10
2011,04,27,13,06,9.00
2011,04,27,13,07,8.90
2011,04,27,13,08,8.90
2011,04,27,13,09,8.70
2011,04,27,13,10,8.60
2011,04,27,13,11,8.50
2011,04,27,13,12,8.40
2011,04,27,13,13,8.30
2011,04,27,13,14,8.30
2011,04,27,13,15,8.20
2011,04,27,13,16,8.10
2011,04,27,13,17,8.00
2011,04,27,13,18,7.80
2011,04,27,13,19,7.70
2011,04,27,13,20,7.50
2011,04,27,13,21,7.50
2011,04,27,13,22,7.40
2011,04,27,13,23,7.30
2011,04,27,13,24,7.20
2011,04,27,13,25,7.20
2011,04,27,13,26,7.10
2011,04,27,13,27,7.10
2011,04,27,13,28,7.00
2011,04,27,13,29,7.00
2011,04,27,13,30,6.90
2011,04,27,13,31,6.90
2011,04,27,13,32,6.90
2011,04,27,13,33,6.80
2011,04,27,13,34,6.80
2011,04,27,13,35,6.80
2011,04,27,13,36,6.80
2011,04,27,13,37,6.70
2011,04,27,13,38,6.60
2011,04,27,13,39,6.60
2011,04,27,13,40,6.50
2011,04,27,13,41,6.50
2011,04,27,13,42,6.40
2011,04,27,13,43,6.30
2011,04,27,13,44,6.20
2011,04,27,13,45,6.20
2011,04,27,13,46,6.20
2011,04,27,13,47,6.10
2011,04,27,13,48,6.10
2011,04,27,13,49,6.00
2011,04,27,13,50,6.00
2011,04,27,13,51,5.90
2011,04,27,13,52,5.90
2011,04,27,13,53,5.90
2011,04,27,13,54,5.80
2011,04,27,13,55,5.80
2011,04,27,13,56,5.80
2011,04,27,13,57,5.70
2011,04,27,13,58,5.70
2011,04,27,13,59,5.70
2011,04,27,14,00,5.70
2011,04,27,14,01,5.70
2011,04,27,14,02,5.60
2011,04,27,14,03,5.60
2011,04,27,14,04,5.50
2011,04,27,14,05,5.40
2011,04,27,14,06,5.40
2011,04,27,14,07,5.40
2011,04,27,14,08,5.40
2011,04,27,14,09,5.50
2011,04,27,14,10,5.50
2011,04,27,14,11,5.50
2011,04,27,14,12,5.50
2011,04,27,14,13,5.40
2011,04,27,14,14,5.40
2011,04,27,14,15,5.40
2011,04,27,14,16,5.40
2011,04,27,14,17,5.40
2011,04,27,14,18,5.40
2011,04,27,14,19,5.40
2011,04,27,14,20,5.40
2011,04,27,14,21,5.40
2011,04,27,14,22,5.40
2011,04,27,14,23,5.40
2011,04,27,14,24,5.40
2011,04,27,14,25,5.40
2011,04,27,14,26,5.40
2011,04,27,14,27,5.40
2011,04,27,14,28,5.40
2011,04,27,14,29,5.40
2011,04,27,14,30,5.40
2011,04,27,14,31,5.40
2011,04,27,14,32,5.40
2011,04,27,14,33,5.40
2011,04,27,14,34,5.40
2011,04,27,14,35,5.40
2011,04,27,14,36,5.40
2011,04,27,14,37,5.40
2011,04,27,14,38,5.40
2011,04,27,14,39,5.50
2011,04,27,14,40,5.60
2011,04,27,14,41,5.60
2011,04,27,14,42,5.60
2011,04,27,14,43,5.70
2011,04,27,14,44,5.70
2011,04,27,14,45,5.70
2011,04,27,14,46,5.70
2011,04,27,14,47,5.70
2011,04,27,14,48,5.70
2011,04,27,14,49,5.80
2011,04,27,14,50,5.80
2011,04,27,14,51,5.80
2011,04,27,14,52,5.80
2011,04,27,14,53,5.90
2011,04,27,14,54,5.90
2011,04,27,14,55,6.00
2011,04,27,14,56,6.00
2011,04,27,14,57,6.00
2011,04,27,14,58,5.90
2011,04,27,14,59,5.90
2011,04,27,15,00,6.00
2011,04,27,15,01,6.00
2011,04,27,15,02,6.00
2011,04,27,15,03,6.00
2011,04,27,15,04,6.10
2011,04,27,15,05,6.10
2011,04,27,15,06,6.10
2011,04,27,15,07,6.10
2011,04,27,15,08,6.10
2011,04,27,15,09,6.10
2011,04,27,15,10,6.10
2011,04,27,15,11,6.20
2011,04,27,15,12,6.20
2011,04,27,15,13,6.20
2011,04,27,15,14,6.20
2011,04,27,15,15,6.20
2011,04,27,15,16,6.20
2011,04,27,15,17,6.30
2011,04,27,15,18,6.30
2011,04,27,15,19,6.30
2011,04,27,15,20,6.30
2011,04,27,15,21,6.30
2011,04,27,15,22,6.30
2011,04,27,15,23,6.30
2011,04,27,15,24,6.30
2011,04,27,15,25,6.40
2011,04,27,15,26,6.40
2011,04,27,15,27,6.40
2011,04,27,15,28,6.40
2011,04,27,15,29,6.50
2011,04,27,15,30,6.40
2011,04,27,15,31,6.40
2011,04,27,15,32,6.40
2011,04,27,15,33,6.50
2011,04,27,15,34,6.40
2011,04,27,15,35,6.40
2011,04,27,15,36,6.50
2011,04,27,15,37,6.50
2011,04,27,15,38,6.50
2011,04,27,15,39,6.50
2011,04,27,15,40,6.50
2011,04,27,15,41,6.50
2011,04,27,15,42,6.50
2011,04,27,15,43,6.50
2011,04,27,15,44,6.60
2011,04,27,15,45,6.60
2011,04,27,15,46,6.60
2011,04,27,15,47,6.60
2011,04,27,15,48,6.60
2011,04,27,15,49,6.60
2011,04,27,15,50,6.60
2011,04,27,15,51,6.70
2011,04,27,15,52,6.70
2011,04,27,15,53,6.70
2011,04,27,15,54,6.70
2011,04,27,15,55,6.60
2011,04,27,15,56,6.60
2011,04,27,15,57,6.60
2011,04,27,15,58,6.60
2011,04,27,15,59,6.60
2011,04,27,16,00,6.60
2011,04,27,16,01,6.60
2011,04,27,16,02,6.60
2011,04,27,16,03,6.60
2011,04,27,16,04,6.60
2011,04,27,16,05,6.60
2011,04,27,16,06,6.60
2011,04,27,16,07,6.60
2011,04,27,16,08,6.60
2011,04,27,16,09,6.60
2011,04,27,16,10,6.60
2011,04,27,16,11,6.60
2011,04,27,16,12,6.60
2011,04,27,16,13,6.60
2011,04,27,16,14,6.60
2011,04,27,16,15,6.60
2011,04,27,16,16,6.60
2011,04,27,16,17,6.60
2011,04,27,16,18,6.50
2011,04,27,16,19,6.50
2011,04,27,16,20,6.50
2011,04,27,16,21,6.40
2011,04,27,16,22,6.40
2011,04,27,16,23,6.40
2011,04,27,16,24,6.40
2011,04,27,16,25,6.40
2011,04,27,16,26,6.40
2011,04,27,16,27,6.40
2011,04,27,16,28,6.40
2011,04,27,16,29,6.40
2011,04,27,16,30,6.30
2011,04,27,16,31,6.30
2011,04,27,16,32,6.20
2011,04,27,16,33,6.20
2011,04,27,16,34,6.20
2011,04,27,16,35,6.20
2011,04,27,16,36,6.20
2011,04,27,16,37,6.20
2011,04,27,16,38,6.20
2011,04,27,16,39,6.10
2011,04,27,16,40,6.10
2011,04,27,16,41,6.10
2011,04,27,16,42,6.00
2011,04,27,16,43,6.00
2011,04,27,16,44,6.00
2011,04,27,16,45,5.90
2011,04,27,16,46,5.90
2011,04,27,16,47,5.90
2011,04,27,16,48,5.90
2011,04,27,16,49,5.90
2011,04,27,16,50,5.90
2011,04,27,16,51,5.90
2011,04,27,16,52,5.90
2011,04,27,16,53,5.80
2011,04,27,16,54,5.80
2011,04,27,16,55,5.80
2011,04,27,16,56,5.80
2011,04,27,16,57,5.80
2011,04,27,16,58,5.80
2011,04,27,16,59,5.80
2011,04,27,17,00,5.80
2011,04,27,17,01,5.80
2011,04,27,17,02,5.80
2011,04,27,17,03,5.80
2011,04,27,17,04,5.80
2011,04,27,17,05,5.80
2011,04,27,17,06,5.80
2011,04,27,17,07,5.80
2011,04,27,17,08,5.80
2011,04,27,17,09,5.80
2011,04,27,17,10,5.80
2011,04,27,17,11,5.80
2011,04,27,17,12,5.80
2011,04,27,17,13,5.80
2011,04,27,17,14,5.80
2011,04,27,17,15,5.80
2011,04,27,17,16,5.80
2011,04,27,17,17,5.80
2011,04,27,17,18,5.80
2011,04,27,17,19,5.80
2011,04,27,17,20,5.70
2011,04,27,17,21,5.70
2011,04,27,17,22,5.70
2011,04,27,17,23,5.70
2011,04,27,17,24,5.70
2011,04,27,17,25,5.70
2011,04,27,17,26,5.70
2011,04,27,17,27,5.70
2011,04,27,17,28,5.70
2011,04,27,17,29,5.70
2011,04,27,17,30,5.70
2011,04,27,17,31,5.70
2011,04,27,17,32,5.70
2011,04,27,17,33,5.70
2011,04,27,17,34,5.70
2011,04,27,17,35,5.70
2011,04,27,17,36,5.70
2011,04,27,17,37,5.70
2011,04,27,17,38,5.70
2011,04,27,17,39,5.70
2011,04,27,17,40,5.70
2011,04,27,17,41,5.70
2011,04,27,17,42,5.70
2011,04,27,17,43,5.70
2011,04,27,17,44,5.70
2011,04,27,17,45,5.80
2011,04,27,17,46,5.70
2011,04,27,17,47,5.70
2011,04,27,17,48,5.70
2011,04,27,17,49,5.80
2011,04,27,17,50,5.80
2011,04,27,17,51,5.80
2011,04,27,17,52,5.80
2011,04,27,17,53,5.80
2011,04,27,17,54,5.80
2011,04,27,17,55,5.80
2011,04,27,17,56,5.80
2011,04,27,17,57,5.80
2011,04,27,17,58,5.80
2011,04,27,17,59,5.80
2011,04,27,18,00,5.80
2011,04,27,18,01,5.80
2011,04,27,18,02,5.80
2011,04,27,18,03,5.70
2011,04,27,18,04,5.70